COSMOS 1275 DEB

Satellite information

Favourite Embed

Satellite Type and Status

DEBRISIN ORBIT

Key statistics

Satellite COSMOS 1275 DEB at a glance.

Uptime

16214

Days in orbit

Revolutions

≈ 14.1

Per day

Orbit

LEO

Low Earth Orbit

Inclination

83.0

Latest

Satellite identification and parameters

Extended collection of information and parameters for COSMOS 1275 DEB.

Object identification

Identified? True

Debris? True

Object name: COSMOS 1275 DEB

International designator: 1981-053J

Object number (NORAD): 12654

Object ID (CCSDS): 12654

Country: COMMONWEALTH OF INDEPENDENT STATES (CIS)

Current information (Y/N): Y

RCS size: MEDIUM

Orbital parameters

Period: 102.239 minutes

Inclination: 82.9836 deg

SMA: 7242.764 km

Apoapsis: 894.709 km

Periapsis: 834.548 km

RAAN: 43.4643 deg

Eccentricy: 0.00415323

Argument of periapsis: 225.5577 deg

Mean anomaly: 255.3069 deg

Mean motion: 14.08465765 rev/day

Mean motion (dot): 0.00001841 rev/day2

B* drag term: 0.0010564342 1/REarth

Two-line elements (TLE)

Creation date: Oct. 25, 2025, 3:11 a.m.

Reference frame: TEME

Reference center: EARTH

Epoch: Oct. 24, 2025, 8:07 p.m. UTC

TLE line 0: 0 COSMOS 1275 DEB

TLE line 1: 1 12654U 81053J 25297.83828590 .00001841 00000-0 10564-2 0 9995

TLE line 2: 2 12654 82.9836 43.4643 0041532 225.5577 255.3069 14.08465765254960

Live tracking on map

Real-time ground track for satellite COSMOS 1275 DEB.

In-orbit conjunctions

A list of the most updated potential collisions computed for object COSMOS 1275 DEB.

Target Orbit TCA Probability of collision Miss distance Type
FENGYUN 1C DEB SSO 2025-05-07 18:30:40 0.0001429785 201.0 (m) DEBRIS
FENGYUN 1C DEB SSO 2025-01-18 05:58:13 0.0001689393 160.0 (m) DEBRIS
METEOR 1-17 DEB LEO 2024-11-09 17:10:42 0.0002976083 398.0 (m) DEBRIS
CZ-6A DEB SSO 2024-09-19 18:50:13 0.0001570365 140.0 (m) DEBRIS

Associated space launch

Navigation satellite providing location information for the Tsiklon-B navigation system

COSMOS 1275 DEB was lifted into orbit during the mission ‘Kosmos-3M | Parus 27’, on board a Kosmos-3M space rocket.

The launch took place on June 4, 1981, 3:41 p.m. from 132/2.

For more information about the launch, click the button.

Launch to space Kosmos-3M | Parus 27
Kosmos-3M | Parus 27

Agency: N/A

Status: Launch Successful

Launch date: June 4, 1981, 3:41 p.m. UTC

Rocket: Kosmos-3M

Launch pad: 132/2

Location: Plesetsk Cosmodrome, Russian Federation

...

Latest news about this satellite

There are no fresh news available about this satellite. Check back as we update our databases every day.


Newsletter sign-up

Weekly statistics, charts and insights to help you stay on top of the space industry.